Погода в Кензино

Россия / Рязанская область     53°45′50″N   40°22′44″E
темп.,
°C
ветер,
м/с
пор.,
м/с
влажн.,
%
обл.,
%
осадки,
мм/ч
давл.,
гПа
погр.,
м
24 мая, вт
вт2400:00+6зюз487792 0.0 1005129
03:00+4з4880100 0.0 1005151
06:00+6з4107791 0.0 1005305
09:00+10сз5849100 0.0 1005727
12:00+13з61047100 0.0 10061882
15:00+12сз81147100 0.0 10062394
18:00+9ссз676981 0.0 10091002
21:00+6ссз3776100 0.0 1010658
25 мая, ср
ср2500:00+4сз358479 0.1 1012177
03:00+1ссз34925 0.1 101389
06:00+3ссз35845 0.0 1014230
09:00+7ссз346218 0.0 10151177
12:00+9сз4553100 0.1 10151794
15:00+10зсз3553100 0.1 10161562
18:00+10зсз2462100 0.0 10151259
21:00+7зюз3472100 0.1 101550
26 мая, чт
чт2600:00+7зюз4875100 0.0 1015229
03:00+7юз377937 0.1 1014254
06:00+7зюз3686100 0.0 1013190
09:00+12юз337455 0.0 1012521
12:00+17з365744 0.0 10111272
15:00+18юз5653100 0.1 10091665
18:00+12зюз71287100 1.3 1009516
21:00+10юв31096100 2.7 1007506
27 мая, пт
пт2700:00+11юв61196100 2.8 1003628
03:00+11юз4798100 5.6 1001477
06:00+10з71295100 0.9 1002725
09:00+13з7107919 1.0 1002830
12:00+12з71288100 1.4 1003763
15:00+16з912711 2.2 10031498
18:00+14з613724 0.5 10051329
21:00+10зюз41282100 0.5 1007275
28 мая, сб
сб2800:00+10ююз51183100 0.0 1006230
03:00+10ююз61483100 0.1 1004426
06:00+10ююз81695100 5.0 1002744
09:00+12юз71397100 7.6 1001839
12:00+14зюз71081100 1.3 10031225
15:00+15з8116348 2.4 10041844
18:00+14з61068100 0.2 10051251
21:00+10юз4108499 0.7 1007373